This demonstration page uses our WeatherBlox Daily Observations layout. Learn more.

Left ArrowRight Arrow

Hourly Observations for October 4, 2022

Temp ( °F °C ) Dew Point ( °F °C ) Humidity (%) Winds ( mph kmh ) Pressure ( in mb ) Visibility ( mi km ) Precip ( " mm )
12:53 am 00:53 Clear 67 19.4 52 11.1 59 59 SSE 10 17 29.99 1016 10 16 0.00 0.00
1:53 am 01:53 Clear 65 18.3 53 11.7 65 65 SE 8 13 29.99 1016 10 16 0.00 0.00
2:53 am 02:53 Clear 61 16.1 51 10.6 70 70 ENE 6 9 29.98 1015 10 16 0.00 0.00
3:53 am 03:53 Clear 59 15 51 10.6 75 75 ENE 6 9 29.97 1015 10 16 0.00 0.00
4:53 am 04:53 Clear 57 13.9 50 10 77 77 ENE 5 7 29.96 1015 10 16 0.00 0.00
5:53 am 05:53 Clear 56 13.3 51 10.6 84 84 E 7 11 29.97 1015 10 16 0.00 0.00
6:53 am 06:53 Clear 59 15 52 11.1 77 77 ESE 9 15 29.97 1015 10 16 0.00 0.00
7:53 am 07:53 Sunny 60 15.6 53 11.7 78 78 ESE 7 11 29.98 1015 10 16 0.00 0.00
8:53 am 08:53 Sunny 63 17.2 53 11.7 70 70 SE 13 20 30.00 1016 10 16 0.00 0.00
9:53 am 09:53 Sunny 67 19.4 54 12.2 63 63 SE 15 24 30.00 1016 10 16 0.00 0.00
10:53 am 10:53 Sunny 71 21.7 54 12.2 55 55 SSE 12 19 30.01 1016 10 16 0.00 0.00
11:53 am 11:53 Sunny 75 23.9 55 12.8 50 50 undefined N/A 29.99 1016 10 16 0.00 0.00
12:53 pm 12:53 Sunny 77 25 54 12.2 45 45 undefined N/A 29.98 1015 10 16 0.00 0.00
1:53 pm 13:53 Sunny 81 27.2 52 11.1 37 37 undefined N/A 29.94 1014 10 16 0.00 0.00
2:53 pm 14:53 Sunny 81 27.2 51 10.6 35 35 VRB 3 6 29.91 1013 10 16 0.00 0.00
3:53 pm 15:53 Sunny 83 28.3 48 8.9 30 30 Calm 29.88 1012 10 16 0.00 0.00
4:53 pm 16:53 Sunny 84 28.9 46 7.8 27 27 S 5 7 29.87 1012 10 16 0.00 0.00
5:53 pm 17:53 Sunny 85 29.4 46 7.8 26 26 SE 7 11 29.86 1011 10 16 0.00 0.00
6:53 pm 18:53 Mostly Sunny 83 28.3 46 7.8 28 28 SSE 6 9 29.88 1012 10 16 0.00 0.00
7:53 pm 19:53 Cloudy 79 26.1 48 8.9 34 34 S 18 30 29.90 1013 10 16 0.00 0.00
8:21 pm 20:21 Mostly Clear with Nearby Thunderstorms 76 24.4 52 11.1 43 43 S 13 20 29.87 1011 10 16 0.00 0.00
8:41 pm 20:41 Clear with Thunderstorms 75 23.9 52 11.1 45 45 S 13 20 29.87 1012 10 16 0.00 0.00
8:53 pm 20:53 Mostly Clear with Nearby Thunderstorms 76 24.4 52 11.1 43 43 S 10 17 29.92 1013 10 16 0.00 0.00
9:08 pm 21:08 Mostly Clear 74 23.3 52 11.1 46 46 S 9 15 29.89 1012 10 16 0.00 0.00
9:53 pm 21:53 Cloudy with Light Rain 73 22.8 53 11.7 50 50 NW 9 15 29.96 1015 10 16 0.01 0.13
10:53 pm 22:53 Clear 70 21.1 52 11.1 53 53 NNW 9 15 29.96 1015 10 16 0.01 0.13
11:53 pm 23:53 Mostly Clear 68 20 54 12.2 61 61 Calm 29.97 1015 10 16 0.00 0.00

Powered by AerisWeather